Terminal Aerodrome Forecast
Issued by NWS

Home | Current Version | Previous Version | Text Only | Print | Product List | Glossary On
Versions: 1 2 3 4 5 6 7 8 9 10 11 12 13 14 15 16 17 18 19 20 21 22 23 24 25 26 27 28 29 30 31 32 33 34 35 36 37 38 39 40 41 42 43 44 45 46 47 48 49 50
000
FTAK31 PANC 041125
TAFACD
TAF
PACD 041125Z 0412/0512 26005KT P6SM FEW010 BKN027 OVC035
      TEMPO 0412/0416 SCT027 OVC035
     FM041800 27012KT P6SM SCT012 OVC025
     FM050500 27006KT P6SM SCT012 BKN025=

USA.gov is the U.S. government's official web portal to all federal, state and local government web resources and services.